Location: Tamazert
(32.6352°N, 5.2072°W)
Time: 17:04:16
(UTC+00:00)

Vanguard 1 - All Passes

Search period start: 26 September 2022 00:00
Search period end: 06 October 2022 00:00
Orbit: 649 x 3832 km, 34.2° (Epoch: 25 September)

Date Brightness Start Highest point End Pass type
(mag) Time Alt. Az. Time Alt. Az. Time Alt. Az.
26 Sep - 11:18:43 10° SSE 11:26:04 13° SE 11:32:17 10° ESE daylight
26 Sep - 13:35:09 10° SSW 13:50:26 37° SSE 13:59:30 10° E daylight
26 Sep - 15:59:57 10° WSW 16:12:56 75° SSE 16:19:47 10° ENE daylight
26 Sep - 18:25:53 10° W 18:34:06 77° N 18:39:06 10° E visible
26 Sep - 20:49:07 10° W 20:54:14 55° SSW 20:58:32 10° SE visible
27 Sep - 11:35:05 10° S 11:47:23 19° SE 11:56:38 10° ESE daylight
27 Sep - 13:55:18 10° SW 14:11:28 47° SSE 14:20:32 10° E daylight
27 Sep - 16:21:13 10° WSW 16:33:46 86° SSE 16:40:24 10° ENE daylight
27 Sep - 18:47:05 10° W 18:54:52 80° N 18:59:45 10° E visible
27 Sep - 21:10:06 10° W 21:14:45 37° SSW 21:18:50 10° SE visible
28 Sep - 11:53:21 10° SSW 12:08:36 27° SSE 12:19:08 10° E daylight
28 Sep - 14:15:53 10° SW 14:32:27 58° SSE 14:41:23 10° E daylight
28 Sep - 16:42:37 10° W 16:54:37 86° N 17:01:00 10° E daylight
28 Sep - 19:08:13 10° W 19:15:37 90° NNE 19:20:22 10° ESE visible
28 Sep - 21:31:17 10° W 21:35:12 24° SSW 21:38:47 10° SSE visible
29 Sep - 10:02:36 10° SSE 10:04:37 10° SE 10:06:35 10° SE daylight
29 Sep - 12:12:31 10° SSW 12:29:45 35° SSE 12:40:52 10° E daylight
29 Sep - 14:36:48 10° WSW 14:53:24 69° SSE 15:02:06 10° ENE daylight
29 Sep - 17:04:05 10° W 17:15:28 81° N 17:21:36 10° E daylight
29 Sep - 19:29:18 10° WNW 19:36:17 75° SSW 19:40:55 10° ESE visible
29 Sep - 21:53:01 10° WSW 21:55:36 15° SW 21:58:05 10° S visible
30 Sep - 10:14:37 10° S 10:25:58 16° SE 10:35:26 10° ESE daylight
30 Sep - 12:32:18 10° SSW 12:50:51 43° SSE 13:02:09 10° E daylight
30 Sep - 14:58:00 10° WSW 15:14:20 79° SSE 15:22:46 10° ENE daylight
30 Sep - 17:25:32 10° W 17:36:20 80° N 17:42:15 10° E daylight
30 Sep - 19:50:22 10° W 19:56:51 55° SSW 20:01:20 10° SE visible
01 Oct - 10:31:51 10° S 10:47:11 23° SE 10:59:01 10° E daylight
01 Oct - 12:52:33 10° SW 13:11:55 53° SSE 13:23:10 10° E daylight
01 Oct - 15:19:25 10° WSW 15:35:16 88° SSE 15:43:25 10° ENE daylight
01 Oct - 17:46:55 10° W 17:57:11 83° N 18:02:53 10° E daylight
01 Oct - 20:11:30 10° W 20:17:19 38° SSW 20:21:33 10° SE visible
02 Oct - 10:50:23 10° SSW 11:08:19 31° SE 11:21:20 10° E daylight
02 Oct - 13:13:11 10° SW 13:32:58 63° SSE 13:44:02 10° ENE daylight
02 Oct - 15:40:58 10° W 15:56:13 86° N 16:04:03 10° E daylight
02 Oct - 18:08:14 10° W 18:17:58 88° SSW 18:23:29 10° ESE daylight
02 Oct - 20:32:50 10° W 20:37:40 25° SW 20:41:27 10° SSE visible
03 Oct - 08:56:50 10° SSE 09:04:09 12° SE 09:10:59 10° ESE daylight
03 Oct - 11:09:41 10° SSW 11:29:25 39° SSE 11:43:00 10° E daylight
03 Oct - 13:34:11 10° WSW 13:54:00 73° SSE 14:04:47 10° ENE daylight
03 Oct - 16:02:36 10° W 16:17:11 82° N 16:24:42 10° E daylight
03 Oct - 18:29:29 10° WNW 18:38:41 75° SSW 18:44:00 10° ESE visible
03 Oct - 20:54:40 10° WSW 20:57:55 15° SW 21:00:41 10° S visible
04 Oct - 09:11:44 10° S 09:25:18 19° SE 09:37:08 10° ESE daylight
04 Oct - 11:29:32 10° SW 11:50:30 48° SSE 12:04:17 10° E daylight
04 Oct - 13:55:27 10° WSW 14:15:03 82° SSE 14:25:29 10° ENE daylight
04 Oct - 16:24:13 10° W 16:38:09 82° N 16:45:21 10° E daylight
04 Oct - 18:50:43 10° WNW 18:59:16 58° SSW 19:04:23 10° SE visible
05 Oct - 09:29:21 10° S 09:46:21 26° SE 10:00:30 10° E daylight
05 Oct - 11:49:49 10° SW 12:11:35 57° SSE 12:25:20 10° ENE daylight
05 Oct - 14:16:58 10° WSW 14:36:07 89° SSE 14:46:11 10° E daylight
05 Oct - 16:45:47 10° W 16:59:04 85° N 17:05:59 10° E daylight
05 Oct - 19:12:00 10° W 19:19:41 42° SSW 19:24:33 10° SE visible
